Time,TemperatureF,DewpointF,PressureIn,WindDirection,WindDirectionDegrees,WindSpeedMPH,WindSpeedGustMPH,Humidity,HourlyPrecipIn,Conditions,Clouds,dailyrainin,SolarRadiationWatts/m^2,SoftwareType,DateUTC
2013-06-10 00:12:00,59.0,20.0,-100.00,SW,221,12.0,32.0,22,0.00,,,0.00,0.000000,,2013-06-10 06:12:00,
2013-06-10 00:22:00,59.0,20.0,-100.00,SW,221,12.0,32.0,22,0.00,,,0.00,0.000000,,2013-06-10 06:22:00,
2013-06-10 00:32:00,59.0,20.0,-100.00,SW,221,12.0,32.0,22,0.00,,,0.00,0.000000,,2013-06-10 06:32:00,
2013-06-10 00:42:00,59.0,20.0,-100.00,SW,221,12.0,32.0,22,0.00,,,0.00,0.000000,,2013-06-10 06:42:00,
2013-06-10 00:52:00,59.0,20.0,-100.00,SW,221,12.0,32.0,22,0.00,,,0.00,0.000000,,2013-06-10 06:52:00,
2013-06-10 01:12:00,58.0,21.0,-100.00,NW,318,15.0,24.0,24,0.00,,,0.00,0.000000,,2013-06-10 07:12:00,
2013-06-10 01:22:00,58.0,21.0,-100.00,NW,318,15.0,24.0,24,0.00,,,0.00,0.000000,,2013-06-10 07:22:00,
2013-06-10 01:32:00,58.0,21.0,-100.00,NW,318,15.0,24.0,24,0.00,,,0.00,0.000000,,2013-06-10 07:32:00,
2013-06-10 01:42:00,58.0,21.0,-100.00,NW,318,15.0,24.0,24,0.00,,,0.00,0.000000,,2013-06-10 07:42:00,
2013-06-10 01:52:00,58.0,21.0,-100.00,NW,318,15.0,24.0,24,0.00,,,0.00,0.000000,,2013-06-10 07:52:00,
2013-06-10 02:12:00,53.0,20.0,-100.00,NW,313,11.0,23.0,27,0.00,,,0.00,0.000000,,2013-06-10 08:12:00,
2013-06-10 02:22:00,53.0,20.0,-100.00,NW,313,11.0,23.0,27,0.00,,,0.00,0.000000,,2013-06-10 08:22:00,
2013-06-10 02:32:00,53.0,20.0,-100.00,NW,313,11.0,23.0,27,0.00,,,0.00,0.000000,,2013-06-10 08:32:00,
2013-06-10 02:42:00,53.0,20.0,-100.00,NW,313,11.0,23.0,27,0.00,,,0.00,0.000000,,2013-06-10 08:42:00,
2013-06-10 02:52:00,53.0,20.0,-100.00,NW,313,11.0,23.0,27,0.00,,,0.00,0.000000,,2013-06-10 08:52:00,
2013-06-10 03:12:00,51.0,21.0,-100.00,WSW,250,6.0,17.0,31,0.00,,,0.00,0.000000,,2013-06-10 09:12:00,
2013-06-10 03:22:00,51.0,21.0,-100.00,WSW,250,6.0,17.0,31,0.00,,,0.00,0.000000,,2013-06-10 09:22:00,
2013-06-10 03:32:00,51.0,21.0,-100.00,WSW,250,6.0,17.0,31,0.00,,,0.00,0.000000,,2013-06-10 09:32:00,
2013-06-10 03:42:00,51.0,21.0,-100.00,WSW,250,6.0,17.0,31,0.00,,,0.00,0.000000,,2013-06-10 09:42:00,
2013-06-10 03:53:00,51.0,21.0,-100.00,WSW,250,6.0,17.0,31,0.00,,,0.00,0.000000,,2013-06-10 09:53:00,
2013-06-10 04:12:00,52.0,22.0,-100.00,NW,305,12.0,15.0,31,0.00,,,0.00,0.000000,,2013-06-10 10:12:00,
2013-06-10 04:22:00,52.0,22.0,-100.00,NW,305,12.0,15.0,31,0.00,,,0.00,0.000000,,2013-06-10 10:22:00,
2013-06-10 04:33:00,52.0,22.0,-100.00,NW,305,12.0,15.0,31,0.00,,,0.00,0.000000,,2013-06-10 10:33:00,
2013-06-10 04:42:00,52.0,22.0,-100.00,NW,305,12.0,15.0,31,0.00,,,0.00,0.000000,,2013-06-10 10:42:00,
2013-06-10 04:52:00,52.0,22.0,-100.00,NW,305,12.0,15.0,31,0.00,,,0.00,0.000000,,2013-06-10 10:52:00,
2013-06-10 05:12:00,50.0,21.0,-100.00,WNW,293,11.0,20.0,31,0.00,,,0.00,0.000000,,2013-06-10 11:12:00,
2013-06-10 05:22:00,50.0,21.0,-100.00,WNW,293,11.0,20.0,31,0.00,,,0.00,0.000000,,2013-06-10 11:22:00,
2013-06-10 05:32:00,50.0,21.0,-100.00,WNW,293,11.0,20.0,31,0.00,,,0.00,0.000000,,2013-06-10 11:32:00,
2013-06-10 05:42:00,50.0,21.0,-100.00,WNW,293,11.0,20.0,31,0.00,,,0.00,0.000000,,2013-06-10 11:42:00,
2013-06-10 05:52:00,50.0,21.0,-100.00,WNW,293,11.0,20.0,31,0.00,,,0.00,0.000000,,2013-06-10 11:52:00,
2013-06-10 08:12:00,59.0,28.0,-100.00,NW,313,4.0,16.0,30,-99.99,,,0.00,355.000000,,2013-06-10 14:12:00,
2013-06-10 08:42:00,59.0,28.0,-100.00,NW,313,4.0,16.0,30,-99.99,,,0.00,355.000000,,2013-06-10 14:42:00,
2013-06-10 08:52:00,59.0,28.0,-100.00,NW,313,4.0,16.0,30,-99.99,,,0.00,355.000000,,2013-06-10 14:52:00,
2013-06-10 09:12:00,60.0,29.0,-100.00,SSE,154,4.0,11.0,31,0.00,,,0.00,619.000000,,2013-06-10 15:12:00,
2013-06-10 09:22:00,60.0,29.0,-100.00,SSE,154,4.0,11.0,31,0.00,,,0.00,619.000000,,2013-06-10 15:22:00,
2013-06-10 09:32:00,60.0,29.0,-100.00,SSE,154,4.0,11.0,31,0.00,,,0.00,619.000000,,2013-06-10 15:32:00,
2013-06-10 09:43:00,60.0,29.0,-100.00,SSE,154,4.0,11.0,31,0.00,,,0.00,619.000000,,2013-06-10 15:43:00,
2013-06-10 09:53:00,60.0,29.0,-100.00,SSE,154,4.0,11.0,31,0.00,,,0.00,619.000000,,2013-06-10 15:53:00,
2013-06-10 10:12:00,61.0,29.0,-100.00,South,175,3.0,11.0,29,0.00,,,0.00,884.000000,,2013-06-10 16:12:00,
2013-06-10 10:23:00,61.0,29.0,-100.00,South,175,3.0,11.0,29,0.00,,,0.00,884.000000,,2013-06-10 16:23:00,
2013-06-10 10:33:00,61.0,29.0,-100.00,South,175,3.0,11.0,29,0.00,,,0.00,884.000000,,2013-06-10 16:33:00,
2013-06-10 10:42:00,61.0,29.0,-100.00,South,175,3.0,11.0,29,0.00,,,0.00,884.000000,,2013-06-10 16:42:00,
2013-06-10 10:52:00,61.0,29.0,-100.00,South,175,3.0,11.0,29,0.00,,,0.00,884.000000,,2013-06-10 16:52:00,
2013-06-10 10:54:00,61.0,29.0,-100.00,SSE,161,5.0,11.0,30,0.00,,,0.00,1122.000000,,2013-06-10 16:54:00,
2013-06-10 11:14:00,61.0,29.0,-100.00,SSE,161,5.0,11.0,30,0.00,,,0.00,1122.000000,,2013-06-10 17:14:00,
2013-06-10 11:26:00,61.0,29.0,-100.00,SSE,161,5.0,11.0,30,0.00,,,0.00,1122.000000,,2013-06-10 17:26:00,
2013-06-10 11:38:00,61.0,29.0,-100.00,SSE,161,5.0,11.0,30,0.00,,,0.00,1122.000000,,2013-06-10 17:38:00,
2013-06-10 11:48:00,61.0,29.0,-100.00,SSE,161,5.0,11.0,30,0.00,,,0.00,1122.000000,,2013-06-10 17:48:00,
2013-06-10 13:12:00,66.0,32.0,-100.00,ESE,117,6.0,11.0,28,-99.99,,,0.00,1413.000000,,2013-06-10 19:12:00,
2013-06-10 13:22:00,66.0,32.0,-100.00,ESE,117,6.0,11.0,28,-99.99,,,0.00,1413.000000,,2013-06-10 19:22:00,
2013-06-10 13:32:00,66.0,32.0,-100.00,ESE,117,6.0,11.0,28,-99.99,,,0.00,1413.000000,,2013-06-10 19:32:00,
2013-06-10 13:42:00,66.0,32.0,-100.00,ESE,117,6.0,11.0,28,-99.99,,,0.00,1413.000000,,2013-06-10 19:42:00,
2013-06-10 13:52:00,66.0,32.0,-100.00,ESE,117,6.0,11.0,28,-99.99,,,0.00,1413.000000,,2013-06-10 19:52:00,
2013-06-10 14:12:00,68.0,32.0,-100.00,East,96,5.0,13.0,26,0.00,,,0.00,1450.000000,,2013-06-10 20:12:00,
2013-06-10 14:22:00,68.0,32.0,-100.00,East,96,5.0,13.0,26,0.00,,,0.00,1450.000000,,2013-06-10 20:22:00,
2013-06-10 14:32:00,68.0,32.0,-100.00,East,96,5.0,13.0,26,0.00,,,0.00,1450.000000,,2013-06-10 20:32:00,
2013-06-10 14:42:00,68.0,32.0,-100.00,East,96,5.0,13.0,26,0.00,,,0.00,1450.000000,,2013-06-10 20:42:00,
2013-06-10 14:52:00,68.0,32.0,-100.00,East,96,5.0,13.0,26,0.00,,,0.00,1450.000000,,2013-06-10 20:52:00,
2013-06-10 15:12:00,68.0,32.0,-100.00,NE,53,9.0,12.0,26,0.00,,,0.00,1410.000000,,2013-06-10 21:12:00,
2013-06-10 15:22:00,68.0,32.0,-100.00,NE,53,9.0,12.0,26,0.00,,,0.00,1410.000000,,2013-06-10 21:22:00,
2013-06-10 15:33:00,68.0,32.0,-100.00,NE,53,9.0,12.0,26,0.00,,,0.00,1410.000000,,2013-06-10 21:33:00,
2013-06-10 15:43:00,68.0,32.0,-100.00,NE,53,9.0,12.0,26,0.00,,,0.00,1410.000000,,2013-06-10 21:43:00,
2013-06-10 15:53:00,68.0,32.0,-100.00,NE,53,9.0,12.0,26,0.00,,,0.00,1410.000000,,2013-06-10 21:53:00,
2013-06-10 16:13:00,68.0,33.0,-100.00,NE,53,9.0,15.0,27,0.00,,,0.00,1083.000000,,2013-06-10 22:13:00,
2013-06-10 16:22:00,68.0,33.0,-100.00,NE,53,9.0,15.0,27,0.00,,,0.00,1083.000000,,2013-06-10 22:22:00,
2013-06-10 16:33:00,68.0,33.0,-100.00,NE,53,9.0,15.0,27,0.00,,,0.00,1083.000000,,2013-06-10 22:33:00,
2013-06-10 16:42:00,68.0,33.0,-100.00,NE,53,9.0,15.0,27,0.00,,,0.00,1083.000000,,2013-06-10 22:42:00,
2013-06-10 16:52:00,68.0,33.0,-100.00,NE,53,9.0,15.0,27,0.00,,,0.00,1083.000000,,2013-06-10 22:52:00,
2013-06-10 17:12:00,68.0,31.0,-100.00,NE,50,13.0,21.0,25,0.00,,,0.00,1087.000000,,2013-06-10 23:12:00,
2013-06-10 17:22:00,68.0,31.0,-100.00,NE,50,13.0,21.0,25,0.00,,,0.00,1087.000000,,2013-06-10 23:22:00,
2013-06-10 17:32:00,68.0,31.0,-100.00,NE,50,13.0,21.0,25,0.00,,,0.00,1087.000000,,2013-06-10 23:32:00,
2013-06-10 17:42:00,68.0,31.0,-100.00,NE,50,13.0,21.0,25,0.00,,,0.00,1087.000000,,2013-06-10 23:42:00,
2013-06-10 17:52:00,68.0,31.0,-100.00,NE,50,13.0,21.0,25,0.00,,,0.00,1087.000000,,2013-06-10 23:52:00,
2013-06-10 18:12:00,68.0,32.0,-100.00,NE,44,9.0,23.0,26,0.00,,,0.00,631.000000,,2013-06-11 00:12:00,
2013-06-10 18:22:00,68.0,32.0,-100.00,NE,44,9.0,23.0,26,0.00,,,0.00,631.000000,,2013-06-11 00:22:00,
2013-06-10 18:32:00,68.0,32.0,-100.00,NE,44,9.0,23.0,26,0.00,,,0.00,631.000000,,2013-06-11 00:32:00,
2013-06-10 18:42:00,68.0,32.0,-100.00,NE,44,9.0,23.0,26,0.00,,,0.00,631.000000,,2013-06-11 00:42:00,
2013-06-10 18:51:00,68.0,32.0,-100.00,NE,44,9.0,23.0,26,0.00,,,0.00,631.000000,,2013-06-11 00:51:00,
2013-06-10 19:12:00,71.0,32.0,-100.00,NE,54,5.0,16.0,24,0.00,,,0.00,536.000000,,2013-06-11 01:12:00,
2013-06-10 19:22:00,71.0,32.0,-100.00,NE,54,5.0,16.0,24,0.00,,,0.00,536.000000,,2013-06-11 01:22:00,
2013-06-10 19:32:00,71.0,32.0,-100.00,NE,54,5.0,16.0,24,0.00,,,0.00,536.000000,,2013-06-11 01:32:00,
2013-06-10 19:42:00,71.0,32.0,-100.00,NE,54,5.0,16.0,24,0.00,,,0.00,536.000000,,2013-06-11 01:42:00,
2013-06-10 19:52:00,71.0,32.0,-100.00,NE,54,5.0,16.0,24,0.00,,,0.00,536.000000,,2013-06-11 01:52:00,
2013-06-10 20:12:00,66.0,32.0,-100.00,ESE,118,3.0,11.0,28,0.00,,,0.00,135.000000,,2013-06-11 02:12:00,
2013-06-10 20:22:00,66.0,32.0,-100.00,ESE,118,3.0,11.0,28,0.00,,,0.00,135.000000,,2013-06-11 02:22:00,
2013-06-10 20:32:00,66.0,32.0,-100.00,ESE,118,3.0,11.0,28,0.00,,,0.00,135.000000,,2013-06-11 02:32:00,
2013-06-10 20:42:00,66.0,32.0,-100.00,ESE,118,3.0,11.0,28,0.00,,,0.00,135.000000,,2013-06-11 02:42:00,
2013-06-10 20:52:00,66.0,32.0,-100.00,ESE,118,3.0,11.0,28,0.00,,,0.00,135.000000,,2013-06-11 02:52:00,
2013-06-10 21:12:00,63.0,34.0,-100.00,NNW,333,3.0,9.0,34,0.00,,,0.00,30.000000,,2013-06-11 03:12:00,
2013-06-10 21:22:00,63.0,34.0,-100.00,NNW,333,3.0,9.0,34,0.00,,,0.00,30.000000,,2013-06-11 03:22:00,
2013-06-10 21:32:00,63.0,34.0,-100.00,NNW,333,3.0,9.0,34,0.00,,,0.00,30.000000,,2013-06-11 03:32:00,
2013-06-10 21:42:00,63.0,34.0,-100.00,NNW,333,3.0,9.0,34,0.00,,,0.00,30.000000,,2013-06-11 03:42:00,
2013-06-10 21:53:00,63.0,34.0,-100.00,NNW,333,3.0,9.0,34,0.00,,,0.00,30.000000,,2013-06-11 03:53:00,
2013-06-10 22:12:00,63.0,33.0,-100.00,NNE,27,3.0,9.0,33,0.00,,,0.00,10.000000,,2013-06-11 04:12:00,
2013-06-10 22:23:00,63.0,33.0,-100.00,NNE,27,3.0,9.0,33,0.00,,,0.00,10.000000,,2013-06-11 04:23:00,
2013-06-10 22:33:00,63.0,33.0,-100.00,NNE,27,3.0,9.0,33,0.00,,,0.00,10.000000,,2013-06-11 04:33:00,
2013-06-10 22:42:00,63.0,33.0,-100.00,NNE,27,3.0,9.0,33,0.00,,,0.00,10.000000,,2013-06-11 04:42:00,
2013-06-10 22:52:00,63.0,33.0,-100.00,NNE,27,3.0,9.0,33,0.00,,,0.00,10.000000,,2013-06-11 04:52:00,
2013-06-10 23:12:00,62.0,35.0,-100.00,West,281,8.0,11.0,36,0.00,,,0.00,0.000000,,2013-06-11 05:12:00,
2013-06-10 23:22:00,62.0,35.0,-100.00,West,281,8.0,11.0,36,0.00,,,0.00,0.000000,,2013-06-11 05:22:00,
2013-06-10 23:32:00,62.0,35.0,-100.00,West,281,8.0,11.0,36,0.00,,,0.00,0.000000,,2013-06-11 05:32:00,
2013-06-10 23:42:00,62.0,35.0,-100.00,West,281,8.0,11.0,36,0.00,,,0.00,0.000000,,2013-06-11 05:42:00,
2013-06-10 23:52:00,62.0,35.0,-100.00,West,281,8.0,11.0,36,0.00,,,0.00,0.000000,,2013-06-11 05:52:00,